Showing default

ORBCOMM FM 13, 25420

Orbit data source: Space-Track

ORBCOMM FM 13, 25420 is a payload satellite owned by Orbcomm (US) in LEO that was launched on Sun, 02 Aug 1998 UTC via a PEGASUS XL/HAPS launch vehicle from the Pegasus Launch, Eastern Range Air Space (ERAS). Payload-class satellites include a variety of spacecraft equipped with specific instruments for various scientific and technological missions. These include communications satellites like Starlink; space stations such as the ISS; scientific satellites like the Hubble; Earth observation satellites from companies like Planet Labs, Umbra, and HawkEye 360; GPS; miniature CubeSats for education and research; and military/defense satellites.

Loading next visibility...
Identifier
25420, 1998-046H
Orbit
LEO
Country
Flag of USUS / ORB
Related business
Manufacturer
OSC-Germantown
Mission
Non-operational Commercial Communications
Bus & Motor
MICROSTAR, Unknown motor
Mass
42 kg wet, 42 kg dry
Launch date (UTC)
1998-08-02 (27 years ago)
Launch vehicle
PEGASUS XL/HAPS
Launch site
Pegasus Launch, Eastern Range Air Space (ERAS)
Object type
Payload
Rocket body
Debris
Shape & HBR
Cyl + 2 Pan, 4.2 m
Radar Cross Section
1.484 m², Medium (>0.1 m² and < 1m²)

Expand to show TLE details & history
Last TLE update: 23 hours ago

TLE from 23 hours ago
0 ORBCOMM FM 13
1 25420U 98046H   25293.77827151  .00001886  00000-0  66427-3 0  9990
2 25420  44.9979 308.8924 0005795 213.9597 146.0881 14.38002752421314
Epoch: 2025-10-20T18:40Z
TLE epoch observation values (Epoch: 2025-10-20T18:40:42.658Z)
Latitude
Longitude
-0.76104°
Altitude
768.539 km
Speed
7.47 km/s
True Right ascension
20h 35m 34s
True Declination
0° 00' 00"
Sunlit
Object was in daylight at epoch
Visualization orbit readout
Latitude
Unknown
Longitude
Unknown
Altitude
Unknown
Speed
Unknown
Apparent Right ascension
Unknown
Apparent Declination
Unknown
Sunlit
N/A
Visualization observer readout
Local Sidereal Time
12:42:26
Azimuth
Unknown
Elevation
Unknown
Doppler factor
Unknown
Orbital elements
Apogee altitude
770.792 km
Perigee altitude
762.511 km
Semi-major axis
7,144.788 km
Eccentricity
0.00058
Inclination
44.9979°
RAAN
308.8924°
Arg. of periapsis
213.9597°
True anomaly
146.12513°
Mean anomaly
146.0881°
Eccentric anomaly
146.10662°
Mean motion
3.59384 °/min
Orbital period
100.17 mins
BSTAR
0.00066427
Loading maneuver chart data...
Computing Atmospheric mass density...

Documentation

Showing up to 5 results
|